Terminal Aerodrome Forecast
Issued by NWS Wilmington, OH

Current Version | Previous Version | Text Only | Print | Product List | Glossary Off
Versions: 1 2 3 4 5 6 7 8 9 10 11 12 13 14

000
FTUS41 KILN 191128
TAFILN
TAF
KILN 191128Z 1912/2012 21008KT P6SM SKC
     FM191500 23010G16KT P6SM FEW250
     FM192300 23004KT P6SM SKC=

USA.gov is the U.S. government's official web portal to all federal, state and local government web resources and services.